Regional Weather Roundup
Issued by NWS Binghamton, NY

Home | Current Version | Previous Version | Text Only | Print | Product List | Glossary On
Versions: 1 2 3 4 5 6 7 8 9 10 11 12 13 14 15 16 17 18 19 20 21 22 23 24 25 26 27 28 29 30 31 32 33 34 35 36 37 38 39 40 41 42 43 44 45 46 47 48 49 50
000
ASUS41 KBGM 272310
RWRBGM
RWRBGM
BINGHAMTON REGIONAL WEATHER ROUNDUP
NATIONAL WEATHER SERVICE BINGHAMTON NY
600 PM EST FRI FEB 27 2015

Note: "fair" indicates few or no clouds below 12,000 feet with no
significant weather and/or obstructions to visibility.

* = Station(s) that does not report precipitation, such as rain,
snow, etc, also no thunder or fog.

!NYZ009-015>018-022>025-036-037-044>046-055>057-062-280000
...CENTRAL NEW YORK...

CITY           SKY/WX    TMP DP  RH WIND       PRES   REMARKS
BINGHAMTON     CLEAR     11  -2  56 N9        30.40R WCI  -2
CORTLAND       FAIR      12   0  57 W3        30.47R
DANSVILLE      CLEAR     12  -6  44 CALM      30.54R
ELMIRA         CLEAR     16  -1  47 N6        30.48R WCI   7
ITHACA         CLEAR     10  -3  55 N6        30.49R WCI   0
MONTICELLO     CLEAR     16  -6  38 NW8       30.38R WCI   5
NORWICH        CLEAR      9  -2  61 CALM      30.47R
ONEONTA        CLEAR      9  -2  61 NW5       30.37R WCI   0
PENN YAN       CLEAR     12  -7  42 NW7       30.49R WCI   1
ROME           MIX PCPN  12   3  67 NW12      30.53R WCI  -2
SIDNEY         CLEAR     14   0  52 NW7       30.47R WCI   4
SYRACUSE       MOCLDY    14   1  55 W8        30.53R WCI   3
$$

!PAZ038>040-043-044-047-048-072-280000
...NORTHEAST PENNSYLVANIA...

CITY           SKY/WX    TMP DP  RH WIND       PRES   REMARKS
HAZLETON       FAIR      19   3  49 W3        30.41R
SCRANTON       CLEAR     19  -1  41 N8        30.43R WCI   9
TOWANDA*         N/A     19  -2  38 NW5       30.49R WCI  13
$$
&&
KEY
WCI = WIND CHILL INDEX
VSB = VISIBILITY
HX  = HEAT INDEX
$$



USA.gov is the U.S. government's official web portal to all federal, state and local government web resources and services.